Epoch 2001 Oct. 18.0 TT = JDT 2452200.5
T 2001 Oct. 8.96339 TT MPC
q 8.2355579 (2000.0) P Q
z -0.0003103 Peri. 343.26813 -0.95752621 +0.00924154
+/-0.0000087 Node 203.88976 -0.10466433 -0.94245716
e 1.0025553 Incl. 45.36840 -0.26867998 +0.33419919
星図
光度変化
m1 = -5.0 + 5 logΔ + 20.0 log r
軌道要素は Dr. Brian G. Marsden の計算によるもので、
M.P.E.C. 2002-G37
に掲載されたものです。
星図は StellaNavigator Ver.2.0 for Windows
(アストロアーツ
編著 / アスキー出版局刊) で作成したものです。
光度グラフはComet for
Windowsで作成したものです。
Copyright(C) Seiichi Yoshida (comet@aerith.net). All rights reserved.